Location: Newark
(43.6583°N, 1.6617°E)
Time: 04:48:49
(UTC+00:00)

Vanguard 1 Rocket - Pass Details

Date: 21 August 2019
Orbit: 652 x 4225 km, 34.3° (Epoch: 15 September)

Event Time Altitude Azimuth Distance (km) Brightness Sun altitude
Rises 06:23:00 0° 264° (W) 3,569 9.8 13.1°
Reaches altitude 10° 06:25:19 10° 254° (WSW) 2,878 9.4 13.5°
Maximum altitude 06:31:37 35° 191° (S) 2,258 9.4 14.7°
Drops below altitude 10° 06:42:30 10° 132° (SE) 5,020 12.0 16.6°
Sets 06:48:08 0° 126° (SE) 6,663 12.7 17.7°
